| time (UTC) | temp F | wind direction | speed knots | gust knots | rain 1hr in | rain 24hr in | rain mn in | humidity % | barometer mb |
| 20260506214504 | 55 | 0 | 1.7 | 0.0 | 0.00 | 0.00 | 0.00 | 87 | 1014.0 |
| 20260506213004 | 55 | 130 | 2.6 | 0.0 | 0.00 | 0.00 | 0.00 | 87 | 1014.0 |
| 20260506211504 | 55 | 130 | 2.6 | 0.0 | 0.00 | 0.00 | 0.00 | 87 | 1014.0 |
| 20260506204504 | 55 | 0 | 1.7 | 0.0 | 0.00 | 0.00 | 0.00 | 87 | 1014.0 |
| 20260506200004 | 57 | 0 | 0.9 | 0.0 | 0.00 | 0.00 | 0.00 | 87 | 1014.0 |
| 20260506194504 | 57 | 0 | 0.9 | 0.0 | 0.00 | 0.00 | 0.00 | 87 | 1014.0 |
| 20260506184504 | 57 | 310 | 4.3 | 0.0 | 0.00 | 0.00 | 0.00 | 82 | 1014.0 |
| 20260506183004 | 57 | 300 | 4.3 | 0.0 | 0.00 | 0.00 | 0.00 | 82 | 1014.0 |
| 20260506174504 | 59 | 310 | 6.1 | 0.0 | 0.00 | 0.00 | 0.00 | 76 | 1014.0 |
| 20260506173004 | 59 | 310 | 6.1 | 0.0 | 0.00 | 0.00 | 0.00 | 76 | 1014.0 |
| 20260506171504 | 59 | 310 | 6.1 | 0.0 | 0.00 | 0.00 | 0.00 | 76 | 1014.0 |
| 20260506163005 | 61 | 320 | 6.1 | 0.0 | 0.00 | 0.00 | 0.00 | 77 | 1014.0 |
| 20260506154504 | 59 | 310 | 6.1 | 0.0 | 0.00 | 0.00 | 0.00 | 76 | 1014.0 |
| 20260506151504 | 59 | 320 | 7.0 | 0.0 | 0.00 | 0.00 | 0.00 | 76 | 1014.0 |
| 20260506150004 | 59 | 310 | 7.0 | 0.0 | 0.00 | 0.00 | 0.00 | 76 | 1015.0 |
| 20260506140004 | 59 | 330 | 0.9 | 0.0 | 0.00 | 0.00 | 0.00 | 76 | 1015.0 |
| 20260506134504 | 59 | 330 | 0.9 | 0.0 | 0.00 | 0.00 | 0.00 | 76 | 1015.0 |
| 20260506133004 | 59 | 320 | 7.8 | 0.0 | 0.00 | 0.00 | 0.00 | 76 | 1015.0 |
| 20260506130005 | 61 | 290 | 10.4 | 0.0 | 0.00 | 0.00 | 0.00 | 72 | 1015.0 |
| 20260506124504 | 61 | 290 | 10.4 | 0.0 | 0.00 | 0.00 | 0.00 | 72 | 1015.0 |
| 20260506123004 | 59 | 300 | 0.9 | 0.0 | 0.00 | 0.00 | 0.00 | 72 | 1015.0 |
| 20260506121505 | 59 | 300 | 0.9 | 0.0 | 0.00 | 0.00 | 0.00 | 72 | 1015.0 |
| 20260506114503 | 63 | 300 | 7.8 | 0.0 | 0.00 | 0.00 | 0.00 | 77 | 1015.0 |
| 20260506111503 | 59 | 280 | 11.3 | 0.0 | 0.00 | 0.00 | 0.00 | 76 | 1015.0 |
| 20260506110005 | 61 | 290 | 7.8 | 0.0 | 0.00 | 0.00 | 0.00 | 72 | 1015.0 |
| 20260506104504 | 61 | 290 | 7.8 | 0.0 | 0.00 | 0.00 | 0.00 | 72 | 1015.0 |
| 20260506103005 | 57 | 280 | 5.2 | 0.0 | 0.00 | 0.00 | 0.00 | 76 | 1015.0 |
| 20260506101504 | 57 | 280 | 5.2 | 0.0 | 0.00 | 0.00 | 0.00 | 76 | 1015.0 |
| 20260506100004 | 57 | 250 | 6.1 | 0.0 | 0.00 | 0.00 | 0.00 | 76 | 1015.0 |
| 20260506094504 | 57 | 250 | 6.1 | 0.0 | 0.00 | 0.00 | 0.00 | 76 | 1015.0 |
| 20260506090004 | 54 | 230 | 5.2 | 0.0 | 0.00 | 0.00 | 0.00 | 81 | 1015.0 |
| 20260506084504 | 54 | 230 | 5.2 | 0.0 | 0.00 | 0.00 | 0.00 | 81 | 1015.0 |
| 20260506083004 | 52 | 230 | 6.1 | 0.0 | 0.00 | 0.00 | 0.00 | 87 | 1015.0 |
| 20260506073004 | 52 | 230 | 7.0 | 0.0 | 0.00 | 0.00 | 0.00 | 87 | 1015.0 |
| 20260506061504 | 50 | 230 | 7.0 | 0.0 | 0.00 | 0.00 | 0.00 | 87 | 1014.0 |
| 20260506044505 | 50 | 230 | 7.0 | 0.0 | 0.00 | 0.00 | 0.00 | 93 | 1015.0 |
| 20260506043004 | 52 | 230 | 7.0 | 0.0 | 0.00 | 0.00 | 0.00 | 87 | 1015.0 |
| 20260506040004 | 50 | 230 | 7.8 | 0.0 | 0.00 | 0.00 | 0.00 | 93 | 1015.0 |
| 20260506034504 | 50 | 230 | 7.8 | 0.0 | 0.00 | 0.00 | 0.00 | 93 | 1015.0 |
| 20260506033005 | 50 | 230 | 7.0 | 0.0 | 0.00 | 0.00 | 0.00 | 93 | 1015.0 |
| 20260506030005 | 50 | 230 | 7.8 | 0.0 | 0.00 | 0.00 | 0.00 | 93 | 1015.0 |
| 20260506023005 | 50 | 240 | 7.8 | 0.0 | 0.00 | 0.00 | 0.00 | 93 | 1015.0 |
| 20260506020005 | 52 | 230 | 7.0 | 0.0 | 0.00 | 0.00 | 0.00 | 87 | 1015.0 |
| 20260506014503 | 52 | 230 | 7.0 | 0.0 | 0.00 | 0.00 | 0.00 | 87 | 1015.0 |
| 20260506011504 | 52 | 230 | 7.0 | 0.0 | 0.00 | 0.00 | 0.00 | 87 | 1016.0 |
| 20260506010004 | 52 | 230 | 6.1 | 0.0 | 0.00 | 0.00 | 0.00 | 87 | 1016.0 |
| 20260506003004 | 52 | 230 | 7.0 | 0.0 | 0.00 | 0.00 | 0.00 | 87 | 1016.0 |
| 20260506000005 | 52 | 220 | 6.1 | 0.0 | 0.00 | 0.00 | 0.00 | 87 | 1016.0 |
| 20260505234504 | 52 | 220 | 6.1 | 0.0 | 0.00 | 0.00 | 0.00 | 87 | 1016.0 |
| 20260505233005 | 52 | 0 | 6.1 | 0.0 | 0.00 | 0.00 | 0.00 | 93 | 1016.0 |
| 20260505231504 | 52 | 0 | 6.1 | 0.0 | 0.00 | 0.00 | 0.00 | 93 | 1016.0 |
| 20260505224504 | 54 | 240 | 7.0 | 0.0 | 0.00 | 0.00 | 0.00 | 87 | 1016.0 |
| 20260505221504 | 54 | 250 | 5.2 | 0.0 | 0.00 | 0.00 | 0.00 | 93 | 1016.0 |